Volver al catálogo

STARLINK-4420

ActivoComunicacionesSSO
NORAD 53654·PAYLOAD·🇺🇸 United States

Lanzado Aug 31, 2022 desde Vandenberg Space Force Base

Loading…

Próximos Pases (próximas 24 horas)

TLE

ActualizadoSource: CelesTrak SupGP

Época: Sep 14, 2026, 21:15 UTC

1 53654C 22105G   26257.88590278 -.00019664  00000+0 -61071-3 0  2574
2 53654  97.2842 134.6971 0001746  94.1204 359.4819 15.33432660    19

Sigue STARLINK-4420 en tiempo real con AllMySat

Download on the App Store